Location: Limerick
(52.6650°N, 8.6230°W)
Time: 23:41:44
(UTC+01:00)

ISS - Pass Details

Date: 21 July 2017
Orbit: 400 x 408 km, 51.6° (Epoch: 24 July)

Event Time Altitude Azimuth Distance (km) Brightness Sun altitude
Exits shadow 01:01:52 26° 111° (ESE) 824 -2.6 -16.4°
Drops below altitude 10° 01:03:43 10° 88° (E) 1,456 -1.1 -16.4°
Sets 01:05:53 0° 80° (E) 2,318 0.0 -16.5°
